TimeCDT,TemperatureF,Dew PointF,Humidity,Sea Level PressureIn,VisibilityMPH,Wind Direction,Wind SpeedMPH,Gust SpeedMPH,PrecipitationIn,Events,Conditions,WindDirDegrees,DateUTC
12:12 AM,59.0,51.8,77,29.91,10.0,SE,6.9,-,N/A,,Unknown,140,2013-09-24 05:12:00
12:33 AM,57.2,53.6,88,29.92,10.0,SE,6.9,-,N/A,,Unknown,140,2013-09-24 05:33:00
12:53 AM,57.2,53.6,88,29.93,10.0,SE,6.9,-,N/A,,Clear,140,2013-09-24 05:53:00
1:12 AM,57.2,53.6,88,29.93,10.0,SE,6.9,-,N/A,,Unknown,140,2013-09-24 06:12:00
1:33 AM,57.2,53.6,88,29.93,10.0,SE,5.8,-,N/A,,Scattered Clouds,140,2013-09-24 06:33:00
1:53 AM,55.4,53.6,94,29.93,10.0,SE,5.8,-,N/A,,Clear,130,2013-09-24 06:53:00
2:12 AM,55.4,51.8,88,29.93,10.0,SE,5.8,-,N/A,,Scattered Clouds,130,2013-09-24 07:12:00
2:33 AM,55.4,51.8,88,29.93,10.0,SE,5.8,-,N/A,,Unknown,130,2013-09-24 07:33:00
2:53 AM,55.4,51.8,88,29.93,10.0,SE,4.6,-,N/A,,Clear,140,2013-09-24 07:53:00
3:13 AM,55.4,51.8,88,29.92,10.0,SE,5.8,-,N/A,,Scattered Clouds,130,2013-09-24 08:13:00
3:32 AM,55.4,53.6,94,29.92,10.0,SE,5.8,-,N/A,,Unknown,140,2013-09-24 08:32:00
3:53 AM,53.6,51.8,94,29.92,10.0,SE,3.5,-,N/A,,Unknown,130,2013-09-24 08:53:00
4:13 AM,53.6,51.8,94,29.92,10.0,SE,5.8,-,N/A,,Unknown,140,2013-09-24 09:13:00
4:32 AM,53.6,51.8,94,29.92,10.0,SE,5.8,-,N/A,,Unknown,140,2013-09-24 09:32:00
4:53 AM,53.6,51.8,94,29.92,10.0,SE,6.9,-,N/A,,Scattered Clouds,140,2013-09-24 09:53:00
5:13 AM,53.6,51.8,94,29.92,10.0,SE,6.9,-,N/A,,Clear,140,2013-09-24 10:13:00
5:32 AM,53.6,51.8,94,29.92,10.0,SE,5.8,-,N/A,,Scattered Clouds,130,2013-09-24 10:32:00
5:53 AM,51.8,51.8,100,29.92,10.0,SE,4.6,-,N/A,,Clear,130,2013-09-24 10:53:00
6:12 AM,51.8,51.8,100,29.93,10.0,SE,3.5,-,N/A,,Clear,130,2013-09-24 11:12:00
6:33 AM,51.8,51.8,100,29.93,10.0,SE,3.5,-,N/A,,Unknown,130,2013-09-24 11:33:00
6:53 AM,50.0,50.0,100,29.93,10.0,SE,3.5,-,N/A,,Unknown,130,2013-09-24 11:53:00
7:12 AM,50.0,50.0,100,29.94,10.0,SE,4.6,-,N/A,,Unknown,130,2013-09-24 12:12:00
7:33 AM,50.0,50.0,100,29.94,10.0,ESE,4.6,-,N/A,,Unknown,110,2013-09-24 12:33:00
7:53 AM,51.8,51.8,100,29.94,10.0,ESE,5.8,-,N/A,,Unknown,120,2013-09-24 12:53:00
8:12 AM,53.6,53.6,100,-9999,10.0,SE,8.1,-,N/A,,Scattered Clouds,130,2013-09-24 13:12:00
8:33 AM,55.4,53.6,94,29.95,10.0,SE,6.9,-,N/A,,Unknown,130,2013-09-24 13:33:00
8:53 AM,57.2,53.6,88,29.95,10.0,SE,8.1,-,N/A,,Unknown,130,2013-09-24 13:53:00
9:12 AM,57.2,53.6,88,29.96,10.0,SE,8.1,-,N/A,,Clear,130,2013-09-24 14:12:00
9:33 AM,59.0,53.6,82,29.95,10.0,SE,6.9,-,N/A,,Clear,130,2013-09-24 14:33:00
9:53 AM,60.8,53.6,77,29.96,10.0,SSE,6.9,-,N/A,,Clear,150,2013-09-24 14:53:00
10:12 AM,59.0,51.8,77,29.96,10.0,SE,6.9,-,N/A,,Clear,140,2013-09-24 15:12:00
10:33 AM,60.8,53.6,77,29.96,10.0,SSE,4.6,-,N/A,,Clear,150,2013-09-24 15:33:00
10:52 AM,60.8,53.6,77,29.96,10.0,Calm,Calm,-,N/A,,Clear,0,2013-09-24 15:52:00
11:13 AM,62.6,53.6,72,29.96,10.0,Calm,Calm,-,N/A,,Clear,0,2013-09-24 16:13:00
11:33 AM,62.6,53.6,72,29.95,10.0,East,3.5,-,N/A,,Clear,100,2013-09-24 16:33:00
11:52 AM,64.4,53.6,68,29.96,10.0,Calm,Calm,-,N/A,,Clear,0,2013-09-24 16:52:00
12:13 PM,64.4,55.4,73,29.96,10.0,Calm,Calm,-,N/A,,Clear,0,2013-09-24 17:13:00
12:33 PM,64.4,53.6,68,29.97,10.0,Calm,Calm,-,N/A,,Clear,0,2013-09-24 17:33:00
12:52 PM,66.2,55.4,68,29.97,10.0,ESE,3.5,-,N/A,,Clear,110,2013-09-24 17:52:00
1:13 PM,66.2,55.4,68,29.96,10.0,WNW,3.5,-,N/A,,Clear,300,2013-09-24 18:13:00
1:32 PM,66.2,55.4,68,29.96,10.0,Calm,Calm,-,N/A,,Clear,0,2013-09-24 18:32:00
1:53 PM,68.0,55.4,64,29.96,10.0,Calm,Calm,-,N/A,,Clear,0,2013-09-24 18:53:00
2:12 PM,68.0,53.6,60,29.95,10.0,Calm,Calm,-,N/A,,Clear,0,2013-09-24 19:12:00
2:33 PM,68.0,55.4,64,29.95,10.0,Calm,Calm,-,N/A,,Clear,0,2013-09-24 19:33:00
2:53 PM,69.8,55.4,60,29.95,10.0,Calm,Calm,-,N/A,,Clear,0,2013-09-24 19:53:00
3:12 PM,69.8,55.4,60,29.95,10.0,East,3.5,-,N/A,,Scattered Clouds,90,2013-09-24 20:12:00
3:33 PM,71.6,55.4,57,29.94,10.0,East,3.5,-,N/A,,Scattered Clouds,90,2013-09-24 20:33:00
3:53 PM,71.6,53.6,53,29.94,10.0,ESE,4.6,-,N/A,,Clear,120,2013-09-24 20:53:00
4:12 PM,69.8,55.4,60,29.94,10.0,Calm,Calm,-,N/A,,Clear,0,2013-09-24 21:12:00
4:33 PM,71.6,53.6,53,29.94,10.0,East,3.5,-,N/A,,Clear,80,2013-09-24 21:33:00
4:53 PM,73.4,55.4,53,29.93,10.0,SE,4.6,-,N/A,,Clear,130,2013-09-24 21:53:00
5:12 PM,71.6,53.6,53,29.94,10.0,Calm,Calm,-,N/A,,Clear,0,2013-09-24 22:12:00
5:33 PM,71.6,55.4,57,29.94,10.0,Calm,Calm,-,N/A,,Clear,0,2013-09-24 22:33:00
5:53 PM,71.6,55.4,57,29.94,10.0,Calm,Calm,-,N/A,,Clear,0,2013-09-24 22:53:00
6:12 PM,69.8,55.4,60,29.94,10.0,Calm,Calm,-,N/A,,Clear,0,2013-09-24 23:12:00
6:33 PM,68.0,55.4,64,29.94,10.0,Calm,Calm,-,N/A,,Clear,0,2013-09-24 23:33:00
6:53 PM,66.2,55.4,68,29.94,10.0,Calm,Calm,-,N/A,,Clear,0,2013-09-24 23:53:00
7:12 PM,64.4,55.4,73,29.94,10.0,Calm,Calm,-,N/A,,Clear,0,2013-09-25 00:12:00
7:33 PM,62.6,57.2,82,29.94,10.0,Calm,Calm,-,N/A,,Scattered Clouds,0,2013-09-25 00:33:00
7:52 PM,62.6,57.2,82,29.94,10.0,Calm,Calm,-,N/A,,Clear,0,2013-09-25 00:52:00
8:13 PM,60.8,57.2,88,29.94,10.0,Calm,Calm,-,N/A,,Unknown,0,2013-09-25 01:13:00
8:33 PM,60.8,57.2,88,29.94,10.0,Calm,Calm,-,N/A,,Unknown,0,2013-09-25 01:33:00
8:52 PM,60.8,57.2,88,29.95,10.0,Calm,Calm,-,N/A,,Unknown,0,2013-09-25 01:52:00
9:13 PM,59.0,57.2,94,29.95,10.0,Calm,Calm,-,N/A,,Unknown,0,2013-09-25 02:13:00
9:33 PM,57.2,57.2,100,29.94,10.0,Calm,Calm,-,N/A,,Unknown,0,2013-09-25 02:33:00
9:52 PM,57.2,57.2,100,29.94,10.0,Calm,Calm,-,N/A,,Unknown,0,2013-09-25 02:52:00
10:13 PM,57.2,55.4,94,29.94,10.0,Calm,Calm,-,N/A,,Unknown,0,2013-09-25 03:13:00
10:32 PM,57.2,55.4,94,29.94,7.0,Calm,Calm,-,N/A,,Unknown,0,2013-09-25 03:32:00
10:53 PM,57.2,57.2,100,29.95,7.0,Calm,Calm,-,N/A,,Unknown,0,2013-09-25 03:53:00
11:13 PM,55.4,55.4,100,29.94,7.0,Calm,Calm,-,N/A,,Clear,0,2013-09-25 04:13:00
11:32 PM,55.4,55.4,100,29.94,7.0,Calm,Calm,-,N/A,,Unknown,0,2013-09-25 04:32:00
11:53 PM,55.4,55.4,100,29.94,7.0,Calm,Calm,-,N/A,,Unknown,0,2013-09-25 04:53:00